SCP
-0 -0 -0 -0 -0 -0 -0 -0 -0 -0 -0 -0 -0 -0 0 0 0 0 0 0 0 0
-0 -0 -0 -0 -0 -0 -0 -0 -0 -0 -0 -0 -0 -0 0 0 0 0 0 0 0 0
0 0 0 0 -0 -0 -0 -0 -0 -0 -0 -0 -0 -0 0 0 0 0 0 0 0 0
0 0 0 0 0 0 -0 -0 -0 -0 -0 -0 -0 0 0 0 0 0 0 0 0 0
0 0 0 0 0 0 0 0 0 0 0 0 0 0 0 0 0 0 0 0 0 0
0 0 0 0 0 0 0 0 0 0 0 0 0 0 0 0 0 0 0 0 0 0
0 0 0 0 0 0 0 0 0 0 0 0 0 0 0 0 0 0 0 0 0 0
0 0 0 0 0 0 0 0 0 0 0 0 0 0 0 0 0 0 0 0 0 0
0 0 0 0 0 0 0 0 0 0 0 0 0 0 0 0 0 0 0 0 0 0
0 0 0 0 0 0 0 0 0 0 0 0 0 0 0 0 0 0 0 0 0 0
0 0 0 0 0 0 0 0 0 0 0 0 0 0 0 0 0 0 0 0 0 0
0 0 0 0 0 0 0 0 0 0 0 0 0 0 0 0 0 0 0 0 0 0
0 0 0 0 0 0 0 0 0 0 0 0 0 0 0 0 0 0 0 0 0 0
0 0 0 0 0 0 0 0 0 0 0 0 0 0 0 0 0 0 0 0 0 0
Wind_Speed_500mb
58 62 62 64 67 73 77 77 75 76 76 73 70 68 65 63 63 63 60 56 54 54
56 60 63 62 65 72 76 75 74 74 76 77 77 73 69 66 62 62 62 60 56 54
56 62 65 64 66 73 73 73 76 78 79 78 77 76 73 69 65 64 60 59 58 56
57 63 67 66 68 74 74 74 77 77 78 81 80 76 75 71 68 65 64 60 58 54
58 64 69 70 72 77 76 78 77 79 84 85 83 77 74 72 69 67 64 60 56 56
61 67 71 71 76 77 77 76 77 80 85 86 83 78 72 68 69 66 60 57 55 57
62 69 72 70 76 76 74 72 77 81 85 85 82 76 70 66 66 65 63 63 64 61
64 69 71 69 75 77 69 71 75 81 85 86 81 76 67 65 66 68 67 64 64 64
64 70 69 71 76 73 69 72 76 79 85 87 82 75 66 64 64 66 66 69 66 65
64 68 67 72 75 70 70 75 79 83 87 89 83 72 66 64 66 67 68 67 68 70
65 66 69 72 70 68 72 77 83 89 91 92 86 70 66 66 65 65 61 64 66 69
63 66 71 71 69 70 76 82 88 91 95 93 87 67 63 64 60 61 62 60 66 67
64 68 69 69 70 74 79 87 93 98 94 84 79 64 58 54 51 58 63 62 67 69
62 64 64 65 68 77 85 91 97 97 88 71 64 60 54 47 51 57 65 68 71 77
Wind_Direction_500mb
352 351 349 347 346 345 343 341 338 336 333 331 328 325 322 318 317 317 315 313 311 310
345 345 344 342 342 340 338 336 334 332 330 328 325 323 320 317 313 311 311 309 306 305
335 338 339 337 335 335 333 332 331 329 328 327 324 322 318 315 312 309 307 305 302 300
326 331 331 331 331 331 329 328 327 326 326 325 322 320 316 313 310 307 304 301 299 295
321 325 325 326 328 329 327 326 325 323 323 321 319 315 313 310 308 306 302 301 297 297
317 320 322 323 325 325 324 322 322 323 322 321 317 311 309 308 305 302 298 297 295 295
312 316 319 317 320 320 320 319 322 323 323 321 316 310 308 306 302 299 297 298 299 298
306 313 315 314 317 318 317 318 322 325 325 322 317 312 310 304 300 299 298 297 297 299
303 310 311 311 314 314 313 317 321 324 326 323 317 314 310 302 299 297 295 296 298 299
303 306 307 309 311 310 311 315 318 321 323 322 316 313 308 303 298 296 295 296 296 298
303 303 306 308 309 308 310 314 317 319 320 320 316 312 307 303 298 296 294 294 295 296
302 303 306 308 308 309 311 313 316 318 318 318 312 309 305 303 301 298 298 296 296 297
303 304 305 306 307 309 312 314 316 317 317 316 310 309 304 303 307 303 301 301 299 297
301 302 302 303 306 310 312 314 315 316 317 317 312 311 309 308 305 303 304 303 301 301
Wind_Speed_850mb
58 62 62 64 67 73 77 77 75 76 76 73 70 68 65 63 63 63 60 56 54 54
56 60 63 62 65 72 76 75 74 74 76 77 77 73 69 66 62 62 62 60 56 54
56 62 65 64 66 73 73 73 76 78 79 78 77 76 73 69 65 64 60 59 58 56
57 63 67 66 68 74 74 74 77 77 78 81 80 76 75 71 68 65 64 60 58 54
58 64 69 70 72 77 76 78 77 79 84 85 83 77 74 72 69 67 64 60 56 56
61 67 71 71 76 77 77 76 77 80 85 86 83 78 72 68 69 66 60 57 55 57
62 69 72 70 76 76 74 72 77 81 85 85 82 76 70 66 66 65 63 63 64 61
64 69 71 69 75 77 69 71 75 81 85 86 81 76 67 65 66 68 67 64 64 64
64 70 69 71 76 73 69 72 76 79 85 87 82 75 66 64 64 66 66 69 66 65
64 68 67 72 75 70 70 75 79 83 87 89 83 72 66 64 66 67 68 67 68 70
65 66 69 72 70 68 72 77 83 89 91 92 86 70 66 66 65 65 61 64 66 69
63 66 71 71 69 70 76 82 88 91 95 93 87 67 63 64 60 61 62 60 66 67
64 68 69 69 70 74 79 87 93 98 94 84 79 64 58 54 51 58 63 62 67 69
62 64 64 65 68 77 85 91 97 97 88 71 64 60 54 47 51 57 65 68 71 77
Wind_Direction_850mb
352 351 349 347 346 345 343 341 338 336 333 331 328 325 322 318 317 317 315 313 311 310
345 345 344 342 342 340 338 336 334 332 330 328 325 323 320 317 313 311 311 309 306 305
335 338 339 337 335 335 333 332 331 329 328 327 324 322 318 315 312 309 307 305 302 300
326 331 331 331 331 331 329 328 327 326 326 325 322 320 316 313 310 307 304 301 299 295
321 325 325 326 328 329 327 326 325 323 323 321 319 315 313 310 308 306 302 301 297 297
317 320 322 323 325 325 324 322 322 323 322 321 317 311 309 308 305 302 298 297 295 295
312 316 319 317 320 320 320 319 322 323 323 321 316 310 308 306 302 299 297 298 299 298
306 313 315 314 317 318 317 318 322 325 325 322 317 312 310 304 300 299 298 297 297 299
303 310 311 311 314 314 313 317 321 324 326 323 317 314 310 302 299 297 295 296 298 299
303 306 307 309 311 310 311 315 318 321 323 322 316 313 308 303 298 296 295 296 296 298
303 303 306 308 309 308 310 314 317 319 320 320 316 312 307 303 298 296 294 294 295 296
302 303 306 308 308 309 311 313 316 318 318 318 312 309 305 303 301 298 298 296 296 297
303 304 305 306 307 309 312 314 316 317 317 316 310 309 304 303 307 303 301 301 299 297
301 302 302 303 306 310 312 314 315 316 317 317 312 311 309 308 305 303 304 303 301 301